GW5802 Weather Reports


time (UTC)temp
C
wind
direction
speed
KPH
gust
KPH
rain 1hr
cm
rain 24hr
cm
rain mn
cm
humidity
%
barometer
mb
20260504214915 23 208 9.7 17.7 0.00 0.00 0.00 31 1011.8
20260504214411 23 245 14.5 22.5 0.00 0.00 0.00 30 1011.6
20260504213908 23 211 8.0 14.5 0.00 0.00 0.00 30 1011.6
20260504213404 23 171 4.8 16.1 0.00 0.00 0.00 30 1011.5
20260504212902 23 244 8.0 16.1 0.00 0.00 0.00 31 1011.6
20260504212357 23 226 8.0 16.1 0.00 0.00 0.00 30 1011.6
20260504211855 23 274 3.2 20.9 0.00 0.00 0.00 31 1011.5
20260504211351 23 271 4.8 12.9 0.00 0.00 0.00 30 1011.2
20260504210849 23 309 4.8 14.5 0.00 0.00 0.00 29 1011.5
20260504210345 23 256 8.0 14.5 0.00 0.00 0.00 29 1011.6
20260504205843 23 203 8.0 16.1 0.00 0.00 0.00 29 1011.6
20260504205341 23 242 6.4 17.7 0.00 0.00 0.00 30 1011.6
20260504204838 23 251 11.3 17.7 0.00 0.00 0.00 29 1011.7
20260504204337 23 253 11.3 16.1 0.00 0.00 0.00 29 1011.6
20260504203836 23 230 9.7 14.5 0.00 0.00 0.00 30 1011.8
20260504203332 23 195 4.8 14.5 0.00 0.00 0.00 31 1011.5
20260504202828 23 268 9.7 22.5 0.00 0.00 0.00 30 1011.7
20260504202325 23 242 8.0 11.3 0.00 0.00 0.00 30 1011.7
20260504201822 23 293 9.7 16.1 0.00 0.00 0.00 30 1011.8
20260504201319 23 266 3.2 14.5 0.00 0.00 0.00 31 1011.9
20260504200817 23 205 6.4 16.1 0.00 0.00 0.00 31 1011.9
20260504200313 23 206 9.7 22.5 0.00 0.00 0.00 31 1012.0
20260504195809 23 243 9.7 16.1 0.00 0.00 0.00 30 1011.8
20260504195305 23 208 4.8 16.1 0.00 0.00 0.00 30 1011.9
20260504194802 23 211 9.7 14.5 0.00 0.00 0.00 31 1012.1
20260504194258 23 227 11.3 12.9 0.00 0.00 0.00 29 1012.0
20260504193754 23 334 1.6 14.5 0.00 0.00 0.00 32 1012.2
20260504193252 23 316 8.0 12.9 0.00 0.00 0.00 30 1012.4
20260504192750 23 233 9.7 14.5 0.00 0.00 0.00 30 1012.2
20260504192248 23 289 6.4 11.3 0.00 0.00 0.00 30 1012.2
20260504191747 23 260 6.4 17.7 0.00 0.00 0.00 30 1012.3
20260504191243 24 241 8.0 12.9 0.00 0.00 0.00 31 1012.4
20260504190739 23 261 3.2 11.3 0.00 0.00 0.00 31 1012.7
20260504190235 23 207 3.2 6.4 0.00 0.00 0.00 30 1012.5
20260504185732 23 240 16.1 17.7 0.00 0.00 0.00 30 1012.7
20260504185229 23 298 9.7 14.5 0.00 0.00 0.00 30 1012.7
20260504184725 23 245 8.0 14.5 0.00 0.00 0.00 29 1012.6
20260504184221 23 323 6.4 11.3 0.00 0.00 0.00 30 1012.7
20260504183717 23 234 6.4 6.4 0.00 0.00 0.00 31 1012.6
20260504183214 23 323 1.6 9.7 0.00 0.00 0.00 30 1012.8
20260504182712 23 322 14.5 20.9 0.00 0.00 0.00 31 1012.8
20260504182209 23 210 3.2 12.9 0.00 0.00 0.00 31 1012.8
20260504181706 23 204 3.2 12.9 0.00 0.00 0.00 32 1013.0
20260504181204 22 260 6.4 12.9 0.00 0.00 0.00 30 1013.0
20260504180703 23 233 6.4 16.1 0.00 0.00 0.00 30 1013.0
20260504180201 23 242 9.7 12.9 0.00 0.00 0.00 30 1013.0
20260504175658 22 188 8.0 14.5 0.00 0.00 0.00 30 1013.1
20260504175154 22 205 1.6 16.1 0.00 0.00 0.00 30 1013.2
20260504174653 23 251 14.5 17.7 0.00 0.00 0.00 29 1013.1
20260504174149 22 242 6.4 12.9 0.00 0.00 0.00 32 1013.1
20260504173646 22 244 12.9 16.1 0.00 0.00 0.00 30 1013.3
20260504173144 22 265 8.0 16.1 0.00 0.00 0.00 31 1013.4
20260504172640 22 252 4.8 12.9 0.00 0.00 0.00 31 1013.4
20260504172137 22 249 3.2 12.9 0.00 0.00 0.00 33 1013.5
20260504171633 22 215 14.5 24.1 0.00 0.00 0.00 31 1013.8
20260504171130 22 238 6.4 12.9 0.00 0.00 0.00 31 1013.7
20260504170626 22 241 11.3 25.7 0.00 0.00 0.00 30 1013.9
20260504170124 22 206 12.9 20.9 0.00 0.00 0.00 32 1013.8
20260504151010 20 239 6.4 17.7 0.00 0.00 0.00 40 1014.6
20260504150507 20 259 8.0 17.7 0.00 0.00 0.00 43 1014.6
20260504140933 17 162 6.4 11.3 0.00 0.00 0.00 50 1015.1
20260504140429 17 239 4.8 12.9 0.00 0.00 0.00 52 1015.3
20260504130354 15 199 6.4 17.7 0.00 0.00 0.00 60 1015.7
20260504120317 12 230 6.4 9.7 0.00 0.00 0.00 72 1016.3
20260504110241 11 219 1.6 4.8 0.00 0.00 0.00 77 1016.8
20260504100205 10 141 1.6 3.2 0.00 0.00 0.00 76 1016.5
20260504090128 10 248 3.2 12.9 0.00 0.00 0.00 76 1016.8
20260504081558 10 193 4.8 9.7 0.00 0.00 0.00 75 1016.8
20260504081054 10 204 3.2 4.8 0.00 0.00 0.00 75 1016.9
20260504080551 10 226 4.8 6.4 0.00 0.00 0.00 74 1017.0
20260504050403 8 190 4.8 6.4 0.00 0.00 0.00 58 1016.8
20260504045900 8 236 4.8 6.4 0.00 0.00 0.00 58 1016.8
20260504045355 8 239 3.2 9.7 0.00 0.00 0.00 59 1016.7
20260504044852 8 281 1.6 3.2 0.00 0.00 0.00 59 1016.7
20260504044350 8 283 1.6 6.4 0.00 0.00 0.00 59 1016.7
20260504043847 8 342 1.6 4.8 0.00 0.00 0.00 60 1016.8
20260504043344 8 249 1.6 4.8 0.00 0.00 0.00 61 1016.9
20260504042841 7 258 1.6 1.6 0.00 0.00 0.00 62 1016.7
20260504042337 7 314 1.6 1.6 0.00 0.00 0.00 61 1016.7
20260504041834 7 317 1.6 3.2 0.00 0.00 0.00 61 1016.5
20260504041330 8 279 0.0 1.6 0.00 0.00 0.00 60 1016.6
20260504040826 8 358 0.0 1.6 0.00 0.00 0.00 59 1016.3
20260504040324 8 354 0.0 0.0 0.00 0.00 0.00 59 1016.5
20260504035820 8 332 0.0 3.2 0.00 0.00 0.00 59 1016.3
20260504035318 8 325 1.6 1.6 0.00 0.00 0.00 58 1016.3
20260504034814 8 304 1.6 3.2 0.00 0.00 0.00 58 1016.3
20260504034312 8 333 1.6 3.2 0.00 0.00 0.00 58 1016.3
20260504033809 8 359 0.0 3.2 0.00 0.00 0.00 59 1016.2
20260504033307 8 337 0.0 1.6 0.00 0.00 0.00 59 1016.1
20260504032803 8 357 0.0 3.2 0.00 0.00 0.00 59 1016.1
20260504032300 8 354 0.0 0.0 0.00 0.00 0.00 59 1016.2
20260504031757 7 272 1.6 3.2 0.00 0.00 0.00 60 1016.0
20260504031254 7 338 1.6 1.6 0.00 0.00 0.00 61 1016.1
20260504030750 7 10 0.0 0.0 0.00 0.00 0.00 63 1016.0
20260504030248 7 18 0.0 0.0 0.00 0.00 0.00 62 1016.1
20260504025744 7 344 0.0 1.6 0.00 0.00 0.00 62 1016.2
20260504025241 7 17 0.0 0.0 0.00 0.00 0.00 59 1016.2
20260504024738 7 0 0.0 0.0 0.00 0.00 0.00 59 1016.1
20260504024234 7 0 0.0 0.0 0.00 0.00 0.00 61 1016.1
20260504023731 7 19 0.0 0.0 0.00 0.00 0.00 62 1016.0
20260504023227 7 7 0.0 0.0 0.00 0.00 0.00 63 1016.0
20260504022723 6 359 0.0 0.0 0.00 0.00 0.00 64 1016.2
20260504022220 7 359 0.0 0.0 0.00 0.00 0.00 65 1016.3
20260504021717 7 359 0.0 0.0 0.00 0.00 0.00 64 1016.2
20260504021214 7 359 0.0 0.0 0.00 0.00 0.00 63 1016.2
20260504020711 7 359 0.0 0.0 0.00 0.00 0.00 61 1016.2
20260504020207 7 359 0.0 0.0 0.00 0.00 0.00 62 1016.0
20260504015704 7 359 0.0 0.0 0.00 0.00 0.00 61 1016.1
20260504015200 7 359 0.0 0.0 0.00 0.00 0.00 62 1015.7
20260504014655 8 359 0.0 0.0 0.00 0.00 0.00 61 1015.7
20260504014153 8 8 0.0 0.0 0.00 0.00 0.00 57 1015.8
20260504013651 8 10 0.0 1.6 0.00 0.00 0.00 59 1015.9
20260504013147 8 259 0.0 0.0 0.00 0.00 0.00 60 1015.9
20260504012644 8 11 0.0 0.0 0.00 0.00 0.00 59 1016.0
20260504012142 8 30 0.0 0.0 0.00 0.00 0.00 58 1015.8
20260504011639 8 31 0.0 0.0 0.00 0.00 0.00 61 1015.8
20260504011136 8 15 0.0 0.0 0.00 0.00 0.00 60 1015.6
20260504010631 8 349 0.0 0.0 0.00 0.00 0.00 59 1015.6
20260504010127 8 17 0.0 0.0 0.00 0.00 0.00 55 1015.7
20260504005625 8 18 0.0 0.0 0.00 0.00 0.00 54 1015.4
20260504005121 8 5 0.0 0.0 0.00 0.00 0.00 55 1015.6
20260504004620 8 27 0.0 0.0 0.00 0.00 0.00 53 1015.4
20260504004116 9 6 0.0 0.0 0.00 0.00 0.00 54 1015.5
20260504003613 9 12 0.0 0.0 0.00 0.00 0.00 53 1015.5
20260504003109 10 346 0.0 1.6 0.00 0.00 0.00 51 1015.0
20260504002606 10 346 0.0 1.6 0.00 0.00 0.00 50 1015.1
20260504002104 10 18 0.0 0.0 0.00 0.00 0.00 48 1014.9
20260504001601 11 16 0.0 0.0 0.00 0.00 0.00 47 1014.9
20260504001057 11 35 0.0 0.0 0.00 0.00 0.00 44 1014.9
20260504000554 12 21 0.0 0.0 0.00 0.00 0.00 42 1014.9
20260504000052 12 351 0.0 1.6 0.00 0.00 0.00 42 1014.9
20260503235550 13 358 1.6 1.6 0.00 0.00 0.00 39 1014.8
20260503235047 13 332 1.6 6.4 0.00 0.00 0.00 37 1014.7
20260503234544 13 221 1.6 3.2 0.00 0.00 0.00 36 1014.9
20260503234043 14 276 3.2 6.4 0.00 0.00 0.00 35 1014.9
20260503233538 14 272 1.6 4.8 0.00 0.00 0.00 34 1014.7
20260503233034 14 238 3.2 9.7 0.00 0.00 0.00 34 1014.8
20260503232532 14 264 4.8 16.1 0.00 0.00 0.00 34 1014.9
20260503232029 15 260 8.0 9.7 0.00 0.00 0.00 34 1014.8
20260503231527 15 271 6.4 12.9 0.00 0.00 0.00 33 1014.8
20260503231023 15 281 4.8 6.4 0.00 0.00 0.00 33 1014.6
20260503230520 15 278 4.8 9.7 0.00 0.00 0.00 33 1014.7
20260503230018 15 334 3.2 4.8 0.00 0.00 0.00 33 1014.6
20260503225514 15 264 4.8 12.9 0.00 0.00 0.00 32 1014.6
20260503225009 15 359 9.7 14.5 0.00 0.00 0.00 32 1014.6
20260503224507 15 291 11.3 17.7 0.00 0.00 0.00 32 1014.5
20260503224005 15 94 6.4 12.9 0.00 0.00 0.00 32 1014.5
20260503223502 15 242 4.8 12.9 0.00 0.00 0.00 32 1014.7
20260503222957 15 218 9.7 22.5 0.00 0.00 0.00 32 1014.6
20260503222456 15 212 11.3 17.7 0.00 0.00 0.00 31 1014.3
20260503221954 15 275 6.4 20.9 0.00 0.00 0.00 31 1014.4
20260503221452 15 258 9.7 20.9 0.00 0.00 0.00 32 1014.5
20260503220949 15 244 14.5 25.7 0.00 0.00 0.00 32 1014.5
20260503220445 15 243 12.9 17.7 0.00 0.00 0.00 32 1014.5
20260503215942 15 331 12.9 17.7 0.00 0.00 0.00 31 1014.5
20260503215439 15 233 12.9 20.9 0.00 0.00 0.00 31 1014.7